Robinson, IL

2:15 AM CDT on April 20, 2018 (GMT -0500)
Robinson Municipal

Weather History for KRSV - December, 2013

Change the Weather History Date:

Thursday, December 5, 2013

  Actual Average (KLWV) Record (KLWV)
Temperature  
Mean Temperature 40 °F -  
Max Temperature 54 °F 45 °F 68 °F (2001)
Min Temperature 25 °F 30 °F 10 °F (1991)
Degree Days  
Heating Degree Days 26    
Moisture  
Dew Point 31 °F    
Average Humidity 88    
Maximum Humidity 97    
Minimum Humidity 79    
Precipitation  
Precipitation 0.31 in - - ()
Sea Level Pressure  
Sea Level Pressure 30.09 in    
Wind  
Wind Speed 11 mph (NW)    
Max Wind Speed 18 mph    
Max Gust Speed 24 mph    
Visibility 6 miles    
Events Rain , Snow    
Averages and records for this station are not official NWS values.
T = Trace of Precipitation, MM = Missing Value Source: NWS Daily Summary

Daily Weather History Graph

Daily Weather History Graph

Search for Another Location

Airport or City:

Astronomy

Dec. 05, 2013 Rise Set
Actual Time 6:54 AM CST 4:28 PM CST
Civil Twilight 6:24 AM CST 4:57 PM CST
Nautical Twilight 5:51 AM CST 5:31 PM CST
Astronomical Twilight 5:19 AM CST 6:03 PM CST
Moon 9:15 AM CST (12/5) 7:47 PM CST (12/5)
Length of Visible Light 10h 32m
Length of Day
9h 33m
Waxing Crescent, 11% of the Moon is Illuminated
Dec 5
Waxing Crescent
Dec 9
First Quarter
Dec 17
Full
Dec 25
Last Quarter
Jan 1
New

Hourly Weather History & Observations

Time (CST) Temp. Windchill Dew Point Humidity Pressure Visibility Wind Dir Wind Speed Gust Speed Precip Events Conditions
12:15 AM 54.1 °F - 48.2 °F 80% 29.82 in 10.0 mi WNW 15.0 mph 21.9 mph N/A   Overcast
12:35 AM 52.9 °F - 46.9 °F 80% 29.82 in 10.0 mi WNW 13.8 mph 20.7 mph N/A   Overcast
12:55 AM 51.8 °F - 46.4 °F 82% 29.82 in 10.0 mi WNW 9.2 mph - N/A   Mostly Cloudy
1:15 AM 51.4 °F - 46.4 °F 83% 29.84 in 10.0 mi WNW 8.1 mph - N/A   Overcast
1:35 AM 50.5 °F - 46.0 °F 85% 29.85 in 10.0 mi WNW 10.4 mph - N/A   Overcast
1:55 AM 49.8 °F - 44.6 °F 82% 29.86 in 10.0 mi NW 9.2 mph - N/A   Overcast
2:15 AM 49.1 °F - 43.5 °F 81% 29.86 in 10.0 mi WNW 10.4 mph 16.1 mph N/A   Overcast
2:35 AM 48.2 °F - 42.3 °F 80% 29.86 in 10.0 mi NW 9.2 mph - N/A   Overcast
2:55 AM 47.3 °F - 41.9 °F 82% 29.86 in 10.0 mi NNW 9.2 mph - N/A   Overcast
3:15 AM 46.4 °F 42.9 °F 40.3 °F 79% 29.86 in 10.0 mi NNW 6.9 mph - N/A   Mostly Cloudy
3:35 AM 45.9 °F 41.7 °F 39.9 °F 80% 29.87 in 10.0 mi NNW 8.1 mph - N/A   Mostly Cloudy
3:55 AM 44.6 °F 39.2 °F 38.7 °F 80% 29.89 in 10.0 mi NNW 10.4 mph - N/A   Mostly Cloudy
4:15 AM 44.2 °F 38.4 °F 38.3 °F 80% 29.92 in 10.0 mi WNW 11.5 mph 17.3 mph N/A   Overcast
4:35 AM 43.7 °F 36.3 °F 38.3 °F 81% 29.93 in 10.0 mi WNW 16.1 mph - N/A   Overcast
4:55 AM 43.3 °F 36.1 °F 38.5 °F 83% 29.95 in 10.0 mi NW 15.0 mph 23.0 mph N/A   Overcast
5:15 AM 41.0 °F 32.2 °F 36.3 °F 83% 29.97 in 7.0 mi NW 18.4 mph 24.2 mph N/A   Overcast
5:35 AM 40.1 °F 32.0 °F 35.2 °F 83% 29.99 in 10.0 mi NW 15.0 mph 20.7 mph N/A   Overcast
5:55 AM 39.2 °F 31.2 °F 34.3 °F 83% 29.99 in 10.0 mi NW 13.8 mph 20.7 mph N/A   Overcast
6:15 AM 38.3 °F 30.1 °F 33.4 °F 83% 29.98 in 10.0 mi NW 13.8 mph - N/A   Overcast
6:35 AM 37.6 °F 29.1 °F 33.3 °F 84% 30.00 in 10.0 mi NW 13.8 mph 18.4 mph N/A   Overcast
6:55 AM 36.9 °F 29.1 °F 32.5 °F 84% 30.01 in 10.0 mi NW 11.5 mph - N/A   Overcast
7:15 AM 36.1 °F 27.3 °F 31.8 °F 84% 30.03 in 10.0 mi NW 13.8 mph - N/A   Overcast
7:35 AM 35.8 °F 25.7 °F 31.1 °F 83% 30.05 in 10.0 mi WNW 17.3 mph 23.0 mph N/A   Overcast
7:55 AM 35.8 °F 25.7 °F 31.3 °F 84% 30.05 in 10.0 mi NW 17.3 mph 21.9 mph N/A   Overcast
8:15 AM 35.8 °F 26.5 °F 31.6 °F 85% 30.06 in 7.0 mi NW 15.0 mph 20.7 mph N/A   Overcast
8:35 AM 36.0 °F 28.0 °F 31.1 °F 82% 30.09 in 10.0 mi NW 11.5 mph - N/A   Overcast
8:55 AM 35.6 °F 26.2 °F 30.2 °F 81% 30.09 in 7.0 mi NW 15.0 mph 18.4 mph N/A   Overcast
9:15 AM 35.6 °F 26.6 °F 30.6 °F 82% 30.09 in 7.0 mi NW 13.8 mph - N/A   Overcast
9:35 AM 34.7 °F 26.9 °F 31.8 °F 89% 30.11 in 5.0 mi WNW 10.4 mph - N/A Rain Light Rain
9:55 AM 34.2 °F 25.7 °F 31.6 °F 90% 30.10 in 7.0 mi NW 11.5 mph 18.4 mph N/A Rain Light Rain
10:15 AM 33.6 °F 25.0 °F 30.4 °F 88% 30.12 in 5.0 mi NW 11.5 mph 18.4 mph 0.01 in   Overcast
10:35 AM 33.1 °F 25.5 °F 30.4 °F 90% 30.13 in 7.0 mi NW 9.2 mph - 0.01 in   Overcast
10:55 AM 33.1 °F 23.9 °F 30.2 °F 89% 30.14 in 10.0 mi NW 12.7 mph - 0.01 in   Overcast
11:15 AM 33.1 °F 24.9 °F 30.9 °F 92% 30.12 in 10.0 mi NW 10.4 mph - N/A   Overcast
11:35 AM 33.1 °F 23.4 °F 30.0 °F 89% 30.11 in 10.0 mi NW 13.8 mph 17.3 mph N/A   Overcast
11:55 AM 32.9 °F 23.7 °F 29.5 °F 87% 30.11 in 10.0 mi NW 12.7 mph 17.3 mph N/A   Overcast
12:15 PM 32.9 °F 24.1 °F 29.7 °F 88% 30.09 in 10.0 mi North 11.5 mph - N/A   Overcast
12:35 PM 32.9 °F 24.7 °F 30.0 °F 89% 30.10 in 7.0 mi NNW 10.4 mph - N/A Rain Light Rain
12:55 PM 33.1 °F 24.4 °F 30.2 °F 89% 30.12 in 5.0 mi NNW 11.5 mph - 0.01 in   Overcast
1:15 PM 32.7 °F 23.4 °F 30.0 °F 90% 30.15 in 3.0 mi NW 12.7 mph - N/A Snow Light Snow
1:35 PM 32.2 °F 24.4 °F 30.2 °F 92% 30.12 in 2.5 mi NNW 9.2 mph - 0.03 in Snow Light Snow
1:55 PM 32.0 °F 24.2 °F 30.0 °F 92% 30.12 in 3.0 mi NNW 9.2 mph - 0.04 in Snow Light Snow
2:15 PM 32.0 °F 24.8 °F 29.3 °F 90% 30.15 in 4.0 mi NNW 8.1 mph - N/A Rain Light Rain
2:35 PM 31.6 °F 25.1 °F 28.8 °F 89% 30.15 in 2.5 mi NNW 6.9 mph - 0.02 in Snow Light Snow
2:55 PM 31.1 °F 24.5 °F 28.8 °F 91% 30.16 in 4.0 mi NNW 6.9 mph - 0.04 in Snow Light Snow
3:15 PM 30.7 °F 23.3 °F 28.9 °F 93% 30.18 in 0.8 mi NW 8.1 mph - 0.02 in Snow Light Snow
3:35 PM 30.4 °F 21.0 °F 29.1 °F 95% 30.18 in 1.2 mi NNW 11.5 mph - 0.04 in Snow Light Snow
3:55 PM 29.8 °F 23.0 °F 27.5 °F 91% 30.16 in 3.0 mi NNW 6.9 mph - 0.06 in Snow Light Snow
4:15 PM 30.2 °F 21.9 °F 26.6 °F 86% 30.15 in 4.0 mi North 9.2 mph - 0.02 in   Overcast
4:35 PM 29.8 °F 21.5 °F 26.1 °F 86% 30.16 in 7.0 mi NNW 9.2 mph - 0.03 in   Overcast
4:55 PM 29.3 °F 19.6 °F 26.6 °F 90% 30.18 in 7.0 mi NW 11.5 mph 17.3 mph 0.04 in   Overcast
5:15 PM 29.1 °F 18.4 °F 26.6 °F 90% 30.17 in 7.0 mi NNW 13.8 mph - N/A Snow Light Snow
5:35 PM 28.9 °F 18.6 °F 26.2 °F 90% 30.19 in 10.0 mi NNW 12.7 mph 16.1 mph N/A Snow Light Snow
5:55 PM 28.8 °F 19.5 °F 25.2 °F 86% 30.21 in 10.0 mi NW 10.4 mph - N/A   Overcast
6:15 PM 28.9 °F 20.4 °F 23.7 °F 81% 30.22 in 10.0 mi NW 9.2 mph - N/A   Overcast
6:35 PM 28.4 °F 19.7 °F 24.6 °F 86% 30.25 in 3.0 mi NW 9.2 mph - N/A Snow Light Snow
6:55 PM 28.2 °F 18.9 °F 23.7 °F 83% 30.23 in 5.0 mi NNW 10.4 mph - N/A Snow Light Snow
7:15 PM 27.3 °F 18.4 °F 25.0 °F 91% 30.23 in 1.5 mi NNW 9.2 mph - N/A Snow Light Snow
7:35 PM 26.6 °F 17.5 °F 25.3 °F 95% 30.23 in 1.5 mi NNW 9.2 mph - N/A Snow Light Snow
7:55 PM 26.6 °F 18.2 °F 25.5 °F 96% 30.23 in 2.5 mi NNW 8.1 mph - N/A Snow Light Snow
8:15 PM 26.2 °F 17.8 °F 25.0 °F 95% 30.24 in 1.8 mi NNW 8.1 mph - N/A Snow Light Snow
8:35 PM 25.7 °F 17.1 °F 24.6 °F 96% 30.22 in 0.8 mi NNW 8.1 mph - N/A Snow Heavy Snow
8:55 PM 25.5 °F 16.9 °F 24.6 °F 96% 30.24 in 0.8 mi NNW 8.1 mph - N/A Snow Snow
9:15 PM 25.5 °F 16.9 °F 24.8 °F 97% 30.25 in 0.5 mi NNW 8.1 mph - N/A Snow Heavy Snow
9:35 PM 25.3 °F 18.5 °F 24.6 °F 97% 30.25 in 0.8 mi NNW 5.8 mph - N/A Snow Snow
9:55 PM 25.3 °F 18.5 °F 24.4 °F 96% 30.24 in 1.0 mi North 5.8 mph - N/A Snow Snow
10:15 PM 25.3 °F 18.5 °F 24.6 °F 97% 30.27 in 1.0 mi NNW 5.8 mph - N/A Snow Snow
10:35 PM 25.3 °F 18.5 °F 24.4 °F 96% 30.27 in 2.0 mi NNW 5.8 mph - 0.01 in Snow Light Snow
10:55 PM 25.3 °F 18.5 °F 24.4 °F 96% 30.27 in 1.0 mi NNW 5.8 mph - 0.03 in Snow Snow
11:15 PM 25.3 °F 18.5 °F 24.4 °F 96% 30.26 in 1.2 mi NNW 5.8 mph - 0.02 in Snow Light Snow
11:35 PM 25.3 °F 17.6 °F 24.1 °F 95% 30.27 in 3.0 mi NW 6.9 mph - 0.05 in Snow Light Snow
11:55 PM 25.3 °F 17.6 °F 23.9 °F 94% 30.27 in 3.0 mi NNW 6.9 mph - 0.08 in Snow Light Snow